Overview Statistics Trail Chart Weather Telemetry Raw packets
 

This is the latest recevied weather packets stored in our database for station/object KB9HUO. If no packets are shown the sender has not sent any weather packets the latest 10 day(s).

<< 83 84 85 86 87 88 89 >>
Time Temp. Humidity Pressure Rain* Wind** Luminosity Snow
1788049597 23.33° C 84% 1019.6 hPa 0 mm - 1 W/m² -
1788049293 23.33° C 85% 1020 hPa 0 mm - 1 W/m² -
1788048993 23.89° C 84% 1020 hPa 0 mm - 2 W/m² -
1788048689 23.89° C 83% 1020 hPa 0 mm - 3 W/m² -
1788048387 24.44° C 81% 1019.7 hPa 0 mm - 5 W/m² -
1788048081 24.44° C 80% 1020.1 hPa 0 mm - 7 W/m² -
1788047778 25° C 78% 1019.8 hPa 0 mm - 8 W/m² -
1788047478 25.56° C 76% 1019.8 hPa 0 mm - 10 W/m² -
1788047173 25.56° C 76% 1020 hPa 0 mm - 11 W/m² -
1788046868 26.11° C 75% 1020.1 hPa 0 mm - 11 W/m² -
1788046567 26.67° C 74% 1020.1 hPa 0 mm - 12 W/m² -
1788046262 26.67° C 69% 1019.8 hPa 0 mm - 14 W/m² -
1788045954 27.22° C 65% 1020 hPa 0 mm - 19 W/m² -
1788045649 27.22° C 65% 1019.8 hPa 0 mm - 25 W/m² -
1788045344 27.78° C 62% 1020 hPa 0 mm - 31 W/m² -
1788045039 27.78° C 65% 1020.1 hPa 0 mm - 37 W/m² -
1788044738 27.78° C 65% 1020.1 hPa 0 mm - 44 W/m² -
1788044434 27.78° C 67% 1020.1 hPa 0 mm - 46 W/m² -
1788044133 27.78° C 66% 1020.3 hPa 0 mm - 46 W/m² -
1788043829 27.78° C 66% 1020 hPa 0 mm - 50 W/m² -
1788043525 27.78° C 69% 1019.8 hPa 0 mm - 55 W/m² -
1788043224 27.78° C 69% 1020.2 hPa 0 mm - 60 W/m² -
1788042919 27.78° C 71% 1020.1 hPa 0 mm - 64 W/m² -
1788042616 27.78° C 71% 1020.1 hPa 0 mm - 64 W/m² -
1788042314 27.78° C 65% 1020.1 hPa 0 mm - 65 W/m² -

* Rain latest hour (hover to see other rain measurements)
** Current wind speed in m/s (hover to see current wind gust speed)